Le nostre stazioni meteo in Italia

Pubblicità
Il mio iltempo24.it
Forli, Italia (16147): Temperatura & dewpoint: 10.02.2019 07:00:00 - 16.02.2019 07:00:00 (CET)Forli, Italia (16147): velocità del vento: 10.02.2019 07:00:00 - 16.02.2019 07:00:00 (CET)Forli, Italia (16147): direzione del vento: 10.02.2019 07:00:00 - 16.02.2019 07:00:00 (CET)Forli, Italia (16147): reduced air pressure: 10.02.2019 07:00:00 - 16.02.2019 07:00:00 (CET)Forli, Italia (16147): visibility: 10.02.2019 07:00:00 - 16.02.2019 07:00:00 (CET)Forli, Italia (16147): precipitazioni: 10.02.2019 07:00:00 - 16.02.2019 07:00:00 (CET)
Data & Tempo tt [°C] td [°C] ff [km/h] ff [kn] dd ppp [hPa] vv [km] rr [mm]
16.02.2019 07:00:00 - - - - - - - -
16.02.2019 06:00:00 3,8 -0,4 8 4 S 1028,9 - 0,0
16.02.2019 05:00:00 4,2 -0,2 9 5 S 1029,0 - 0,0
16.02.2019 04:00:00 4,2 0,2 5 3 SSO 1029,2 - 0,0
16.02.2019 03:00:00 4,3 0,1 5 3 OSO 1029,4 - 0,0
16.02.2019 02:00:00 4,8 0,4 3 2 SO 1029,9 - 0,0
16.02.2019 01:00:00 4,6 0,6 4 2 O 1029,9 - 0,0
16.02.2019 00:00:00 - - - - - - - -
15.02.2019 23:00:00 5,8 0,9 6 3 O 1029,6 - 0,0
15.02.2019 22:00:00 6,0 1,1 5 3 S 1029,9 - 0,0
15.02.2019 21:00:00 6,5 1,4 1 1 SO 1029,5 - 0,0
15.02.2019 20:00:00 7,5 1,6 1 1 SSO 1029,1 - 0,0
15.02.2019 19:00:00 8,3 1,4 5 3 ESE 1029,0 - 0,0
15.02.2019 18:00:00 9,7 2,3 11 6 E 1029,0 5 0,0
15.02.2019 17:00:00 11,7 2,7 9 5 E 1028,6 7 0,0
15.02.2019 16:00:00 13,1 1,7 4 2 - 1028,3 7 0,0
15.02.2019 15:00:00 13,3 1,0 4 2 - 1028,2 7 0,0
15.02.2019 14:00:00 12,7 0,4 4 2 - 1028,3 7 0,0
15.02.2019 13:00:00 11,7 0,8 4 2 - 1028,8 8 0,0
15.02.2019 12:00:00 10,4 0,7 5 3 - 1029,7 8 0,0
15.02.2019 11:00:00 9,0 0,2 2 1 - 1030,1 10 0,0
15.02.2019 10:00:00 7,8 -1,2 0 0 N 1030,3 10 0,0
15.02.2019 09:00:00 5,0 -2,1 4 2 SO 1030,1 - 0,0
15.02.2019 08:00:00 3,1 -2,4 6 4 SO 1030,2 - 0,0
15.02.2019 07:00:00 3,0 -2,3 5 3 SO 1030,0 - 0,0
15.02.2019 06:00:00 3,1 -2,2 5 3 SO 1029,9 - 0,0
15.02.2019 05:00:00 3,0 -2,1 - - - 1029,7 - -
15.02.2019 04:00:00 3,8 -1,6 6 3 SO 1029,8 - 0,0
15.02.2019 03:00:00 3,7 -1,5 3 2 SSO 1030,0 - 0,0
15.02.2019 02:00:00 4,5 -1,1 7 4 S 1030,4 - 0,0
15.02.2019 01:00:00 4,5 -1,1 8 4 S 1030,5 - 0,0
15.02.2019 00:00:00 4,8 -1,0 8 4 SSO 1030,4 - 0,0
14.02.2019 23:00:00 4,8 -0,8 5 3 SO 1030,5 - 0,0
14.02.2019 22:00:00 5,5 -0,3 4 2 SO 1030,2 - 0,0
14.02.2019 21:00:00 5,8 -0,7 6 3 OSO 1030,0 - 0,0
14.02.2019 20:00:00 8,0 0,9 3 1 NO 1030,8 - -
14.02.2019 19:00:00 8,9 0,8 3 1 SE 1030,6 - 0,0
14.02.2019 18:00:00 10,0 1,6 4 2 - 1030,0 10 0,0
14.02.2019 17:00:00 13,1 -3,7 0 0 N 1029,8 10 0,0
14.02.2019 16:00:00 13,7 -3,6 2 1 - 1030,1 10 0,0
14.02.2019 15:00:00 13,1 -4,5 0 0 N 1030,5 10 0,0
14.02.2019 14:00:00 12,5 -3,3 4 2 - 1031,1 10 0,0
14.02.2019 13:00:00 11,5 -3,1 4 2 - 1031,7 10 0,0
14.02.2019 12:00:00 10,5 -2,9 0 0 N 1032,8 10 0,0
14.02.2019 11:00:00 8,2 -3,0 0 0 N 1033,6 10 0,0
14.02.2019 10:00:00 8,0 -2,3 0 0 SSE 1033,7 10 0,0
14.02.2019 09:00:00 4,5 -3,0 1 1 SSO 1033,8 - 0,0
14.02.2019 08:00:00 2,7 -3,6 8 4 S 1033,9 - 0,0
14.02.2019 07:00:00 2,1 -3,6 8 4 S 1034,1 - 0,0
14.02.2019 06:00:00 2,5 -3,8 6 3 SSO 1034,1 - 0,0
14.02.2019 05:00:00 2,4 -3,7 5 3 SO 1034,0 - 0,0
14.02.2019 04:00:00 2,2 -3,5 4 2 OSO 1034,3 - 0,0
14.02.2019 03:00:00 2,8 -2,9 2 1 SSE 1034,6 - 0,0
14.02.2019 02:00:00 3,3 -2,9 0 0 SSE 1034,9 - 0,0
14.02.2019 01:00:00 3,0 -3,4 4 2 SSO 1035,0 - 0,0
14.02.2019 00:00:00 3,1 -3,0 6 3 SSO 1035,0 - 0,0
13.02.2019 23:00:00 3,7 -2,9 5 3 S 1034,9 - 0,0
13.02.2019 22:00:00 4,9 -3,1 8 4 S 1034,6 - 0,0
13.02.2019 21:00:00 5,5 -3,1 7 4 SSO 1034,5 - 0,0
13.02.2019 20:00:00 7,0 -3,3 6 3 SSE 1034,2 - 0,0
13.02.2019 19:00:00 7,7 -3,5 4 2 SE 1033,5 - 0,0
13.02.2019 18:00:00 8,7 -3,5 9 5 E 1033,3 10 -
13.02.2019 17:00:00 10,4 -4,8 5 3 - 1032,6 10 0,0
13.02.2019 16:00:00 11,3 -5,7 8 4 E 1032,7 10 0,0
13.02.2019 15:00:00 11,2 -5,3 5 3 - 1032,6 10 0,0
13.02.2019 14:00:00 11,0 -4,7 11 6 ESE 1032,5 10 0,0
13.02.2019 13:00:00 11,0 -6,0 11 6 E - 10 -
13.02.2019 12:00:00 10,2 -3,5 11 6 E 1033,7 10 0,0
13.02.2019 11:00:00 9,2 -2,7 15 8 ESE 1033,6 10 0,0
13.02.2019 10:00:00 8,7 -3,2 0 0 N 1033,6 10 0,0
13.02.2019 09:00:00 5,0 -3,3 1 1 SE 1032,9 - 0,0
13.02.2019 08:00:00 2,5 -4,0 7 4 S 1032,3 - 0,0
13.02.2019 07:00:00 1,6 -4,1 6 3 S 1031,7 - 0,0
13.02.2019 06:00:00 1,9 -3,8 6 3 S 1031,1 - 0,0
13.02.2019 05:00:00 2,3 -3,6 3 2 SSE 1030,7 - 0,0
13.02.2019 04:00:00 2,5 -3,8 3 1 S 1029,9 - 0,0
13.02.2019 03:00:00 2,8 -4,2 4 2 SSO 1029,6 - 0,0
13.02.2019 02:00:00 2,8 -4,4 - - - 1029,4 - 0,0
13.02.2019 01:00:00 3,1 -4,8 - - - 1029,1 - 0,0
13.02.2019 00:00:00 3,9 -4,6 3 2 S 1028,4 - 0,0
12.02.2019 23:00:00 4,6 -4,4 1 0 SO 1027,3 - 0,0
12.02.2019 22:00:00 5,3 -4,8 4 2 SSE 1026,5 - 0,0
12.02.2019 21:00:00 6,4 -3,8 3 1 SO 1025,6 - 0,0
12.02.2019 20:00:00 7,8 -3,4 4 2 SSE 1024,5 - 0,0
12.02.2019 19:00:00 9,1 -3,5 6 3 ESE 1023,5 - 0,0
12.02.2019 18:00:00 10,5 -3,2 4 2 - 1022,6 10 0,0
12.02.2019 17:00:00 13,7 -9,5 13 7 N 1021,6 10 0,0
12.02.2019 16:00:00 14,5 -11,9 13 7 NNO 1021,2 10 0,0
12.02.2019 15:00:00 14,7 -11,7 13 7 NNO 1020,7 10 0,0
12.02.2019 14:00:00 14,4 -11,1 9 5 NO 1020,6 10 0,0
12.02.2019 13:00:00 14,0 -7,0 9 5 NNO - 10 -
12.02.2019 12:00:00 12,7 -10,4 18 10 NO 1021,6 10 0,0
12.02.2019 11:00:00 11,9 -10,4 9 5 NO 1021,6 10 0,0
12.02.2019 10:00:00 10,4 -9,9 11 6 ONO 1021,6 10 0,0
12.02.2019 09:00:00 8,4 -9,1 10 6 ONO 1021,6 - 0,0
12.02.2019 08:00:00 6,7 -9,7 8 4 O 1020,9 - 0,0
12.02.2019 07:00:00 6,3 -9,6 9 5 O 1020,6 - 0,0
12.02.2019 06:00:00 6,0 -9,1 6 4 O 1020,1 - 0,0
12.02.2019 05:00:00 6,6 -9,3 7 4 ONO 1019,5 - 0,0
12.02.2019 04:00:00 6,6 -8,9 8 4 ONO 1019,0 - 0,0
12.02.2019 03:00:00 7,0 -8,6 8 4 NO 1018,8 - 0,0
12.02.2019 02:00:00 8,2 -8,8 12 7 ONO 1018,4 - 0,0
12.02.2019 01:00:00 8,8 -8,7 14 8 ONO 1017,9 - 0,0
12.02.2019 00:00:00 9,7 -8,9 16 9 ONO 1017,1 - 0,0
11.02.2019 23:00:00 - - - - - - - -
11.02.2019 22:00:00 10,1 -8,6 12 7 ONO 1015,4 - 0,0
11.02.2019 21:00:00 10,6 -8,1 13 7 ONO 1014,5 - 0,0
11.02.2019 20:00:00 10,6 -6,7 15 8 ONO 1013,5 - 0,0
11.02.2019 19:00:00 10,2 -3,9 9 5 ONO 1012,6 - 0,0
11.02.2019 18:00:00 10,8 -2,6 8 4 ONO 1011,3 10 0,0
11.02.2019 17:00:00 11,3 -1,8 4 2 - 1010,3 10 0,0
11.02.2019 16:00:00 11,6 -1,5 15 8 NNO 1009,7 10 0,0
11.02.2019 15:00:00 12,4 -2,6 16 9 NO 1008,6 10 0,0
11.02.2019 14:00:00 11,3 -1,5 21 11 NO 1008,2 10 0,0
11.02.2019 13:00:00 11,2 -0,9 22 12 NNO 1008,2 10 0,0
11.02.2019 12:00:00 10,2 -1,5 31 17 NO 1007,9 10 0,0
11.02.2019 11:00:00 10,6 -2,4 24 13 NO 1007,1 10 0,0
11.02.2019 10:00:00 9,6 0,2 16 8 NO 1006,3 - 0,0
11.02.2019 09:00:00 5,5 3,2 10 5 ONO 1005,5 - 0,0
11.02.2019 08:00:00 4,9 4,0 8 4 ONO 1004,5 - 0,0
11.02.2019 07:00:00 5,3 4,4 1 0 SSO 1004,2 - 0,0
11.02.2019 06:00:00 5,3 4,3 11 6 ONO 1004,4 - 0,0
11.02.2019 05:00:00 6,3 4,8 18 10 NO 1003,8 - 0,0
11.02.2019 04:00:00 8,1 6,9 1 1 OSO 1003,2 - 0,2
11.02.2019 03:00:00 7,2 6,3 1 0 ONO 1003,5 - 3,2
11.02.2019 02:00:00 7,3 5,6 17 9 NO 1004,0 - 0,4
11.02.2019 01:00:00 14,0 5,6 20 11 OSO 1002,4 - 0,0
11.02.2019 00:00:00 14,8 4,2 18 10 SO 1002,6 - 0,0
10.02.2019 23:00:00 14,5 3,6 21 11 SSO 1003,6 - 0,0
10.02.2019 22:00:00 14,5 3,3 12 7 SO 1004,9 - 0,0
10.02.2019 21:00:00 14,3 3,1 16 9 SO 1005,5 - 0,0
10.02.2019 20:00:00 14,3 2,8 5 3 OSO 1005,9 - 0,0
10.02.2019 19:00:00 13,8 3,8 9 5 S 1007,0 - 0,0
10.02.2019 18:00:00 13,0 5,9 8 5 S 1008,2 - 0,0
10.02.2019 17:00:00 13,6 5,7 1 1 E 1009,5 - 0,0
10.02.2019 16:00:00 14,2 5,8 3 2 ENE 1010,3 - 0,0
10.02.2019 15:00:00 14,9 5,4 2 1 E 1010,9 - 0,0
10.02.2019 14:00:00 15,3 4,6 1 1 ONO 1012,0 - 0,0
10.02.2019 13:00:00 15,2 4,6 1 0 S 1012,8 - 0,0
10.02.2019 12:00:00 15,5 4,8 3 2 SE 1014,3 - 0,0
10.02.2019 11:00:00 14,2 5,3 5 3 S 1015,1 - 0,0
10.02.2019 10:00:00 12,5 4,9 3 1 SSO 1015,5 - 0,0
10.02.2019 09:00:00 11,3 4,3 2 1 S 1015,6 - 0,0
10.02.2019 08:00:00 8,5 3,9 0 0 ESE 1015,8 - 0,0
10.02.2019 07:00:00 9,0 4,0 4 2 SE 1016,0 - 0,0

tt = Temperatura
td = dewpoint
ff = velocità del vento
dd = direzione del vento
ppp = reduced air pressure
vv = visibility
rr = precipitazioni

Stazioni seguenti

WeatherPro
AMSI
MeteoEarth